Temp
18 17 15 14 14 13 12 12 12 13 15 16 16 16 16 16 16 17 17 16 16 16 16 17 17 17 16 16 15 16 15 15
16 14 14 13 13 12 11 11 11 11 12 13 14 15 16 16 16 16 16 16 16 16 16 15 16 17 18 16 15 15 15 15
15 14 13 12 11 10 10 10 10 10 10 11 12 14 15 15 16 17 16 16 16 16 16 15 16 16 17 16 15 15 15 14
14 13 12 11 11 9 9 8 9 9 9 10 10 11 12 15 15 16 16 16 16 16 15 16 15 15 16 17 15 15 15 13
13 12 11 10 10 9 8 7 7 7 9 10 9 9 10 12 14 15 15 15 16 16 15 15 15 15 15 15 14 16 14 12
12 11 10 10 9 7 6 6 6 6 7 8 9 9 9 10 12 14 15 16 15 16 16 15 14 14 14 15 14 14 14 14
11 10 9 9 7 6 5 4 4 5 6 7 7 7 8 9 10 11 14 15 15 15 15 15 15 14 13 14 13 13 13 14
10 9 8 7 6 5 4 3 3 3 4 5 6 6 7 8 8 9 10 12 15 14 14 14 15 14 14 13 13 13 13 12
9 8 7 6 5 4 2 2 3 4 4 5 5 5 5 6 7 6 7 10 12 13 12 13 13 13 13 14 13 13 13 12
8 7 6 5 3 2 1 -0 1 2 2 3 4 5 5 5 5 5 6 7 10 12 12 12 14 13 13 13 13 13 13 13
7 6 5 3 2 0 -1 -2 -2 -1 -0 1 2 2 3 3 4 5 7 7 9 12 12 11 13 13 13 13 13 13 13 12
6 5 4 2 0 -1 -3 -2 -1 -1 -1 -1 -0 1 2 3 3 5 7 7 8 11 13 12 12 12 13 13 13 14 13 13
4 3 2 0 -1 -3 -3 -2 -2 -2 -1 -1 -0 0 2 3 4 7 8 9 10 10 12 11 12 13 13 12 13 13 13 13
3 1 0 -1 -3 -4 -3 -4 -3 -2 -2 -2 -1 0 2 3 4 6 8 9 9 10 11 11 12 13 12 12 12 12 13 13
0 -1 -2 -4 -5 -5 -4 -5 -4 -3 -3 -3 -1 -0 -0 1 4 4 6 7 9 11 11 11 12 12 13 11 11 12 12 12
-2 -3 -4 -5 -5 -4 -5 -6 -5 -4 -4 -4 -3 -1 -1 1 2 3 6 6 7 7 10 10 11 11 11 11 11 11 11 11
-4 -5 -5 -5 -5 -5 -6 -6 -6 -6 -5 -5 -4 -2 -1 -0 0 2 3 5 7 8 10 10 10 11 11 11 11 11 11 11
-6 -6 -6 -5 -5 -5 -6 -6 -6 -6 -6 -5 -4 -4 -3 -2 -1 0 1 1 3 3 6 7 8 9 10 11 11 11 11 10
-6 -6 -6 -5 -5 -5 -5 -5 -5 -6 -6 -5 -5 -5 -5 -4 -2 -2 -1 -0 1 0 1 3 5 5 7 10 9 10 10 9
Height
1446 1450 1452 1454 1457 1460 1460 1460 1459 1458 1458 1458 1459 1460 1462 1464 1465 1466 1468 1467 1470 1472 1474 1474 1478 1482 1484 1487 1488 1491 1493 1495
1445 1449 1454 1456 1458 1460 1460 1458 1457 1456 1456 1455 1455 1456 1457 1460 1460 1462 1462 1464 1464 1466 1467 1469 1469 1472 1476 1482 1483 1485 1489 1491
1444 1448 1451 1454 1459 1458 1457 1456 1454 1452 1452 1451 1451 1450 1450 1450 1451 1453 1455 1458 1457 1457 1460 1462 1463 1464 1468 1472 1476 1476 1481 1488
1443 1449 1451 1456 1459 1456 1455 1453 1451 1449 1447 1446 1445 1444 1444 1444 1447 1447 1448 1450 1451 1448 1452 1454 1456 1457 1459 1462 1467 1469 1471 1478
1445 1449 1455 1458 1455 1454 1451 1449 1447 1445 1443 1441 1440 1439 1438 1438 1438 1438 1438 1442 1443 1442 1445 1445 1447 1450 1452 1455 1458 1460 1464 1468
1446 1453 1457 1456 1453 1451 1448 1446 1444 1441 1438 1437 1435 1433 1431 1429 1429 1429 1429 1430 1431 1433 1433 1436 1437 1441 1445 1446 1449 1452 1454 1458
1449 1454 1455 1453 1451 1449 1446 1444 1441 1437 1433 1431 1429 1426 1423 1421 1421 1420 1421 1421 1421 1424 1422 1425 1430 1432 1437 1439 1442 1444 1446 1448
1449 1450 1450 1449 1448 1445 1442 1439 1436 1432 1428 1425 1422 1419 1417 1414 1412 1410 1410 1411 1411 1411 1416 1416 1416 1420 1427 1432 1433 1435 1438 1441
1448 1448 1447 1447 1445 1442 1438 1433 1429 1426 1422 1419 1416 1412 1409 1405 1402 1400 1398 1398 1399 1401 1406 1407 1396 1405 1415 1423 1427 1427 1429 1433
1448 1447 1446 1445 1443 1440 1436 1430 1426 1422 1417 1412 1408 1405 1401 1396 1392 1389 1387 1386 1386 1390 1394 1397 1397 1400 1405 1410 1416 1418 1422 1425
1447 1446 1446 1445 1443 1439 1434 1429 1424 1419 1413 1407 1401 1397 1392 1386 1382 1377 1375 1373 1374 1377 1382 1387 1389 1390 1396 1399 1404 1409 1414 1418
1447 1447 1446 1444 1440 1436 1431 1426 1421 1414 1407 1402 1396 1389 1383 1377 1372 1368 1365 1362 1361 1362 1368 1375 1378 1381 1385 1389 1393 1399 1405 1411
1450 1449 1447 1444 1440 1435 1429 1423 1417 1409 1402 1397 1390 1383 1376 1369 1363 1359 1356 1352 1350 1351 1355 1362 1367 1369 1375 1379 1384 1390 1397 1405
1452 1450 1449 1447 1441 1434 1427 1420 1414 1406 1399 1393 1386 1378 1370 1363 1358 1352 1349 1346 1345 1345 1349 1352 1355 1361 1368 1371 1375 1382 1389 1394
1454 1452 1450 1445 1440 1433 1426 1421 1415 1407 1399 1391 1384 1377 1369 1359 1355 1350 1344 1337 1334 1334 1340 1343 1348 1353 1358 1364 1369 1375 1382 1387
1456 1454 1451 1445 1439 1433 1429 1425 1417 1410 1401 1391 1384 1376 1368 1360 1354 1348 1342 1334 1331 1330 1322 1327 1340 1344 1350 1357 1363 1369 1375 1379
1457 1455 1449 1444 1440 1437 1432 1427 1419 1412 1404 1395 1385 1377 1370 1364 1357 1350 1342 1337 1330 1327 1327 1333 1337 1340 1346 1353 1359 1365 1366 1370
1456 1454 1452 1448 1444 1439 1434 1429 1423 1416 1408 1399 1390 1383 1376 1369 1363 1354 1347 1342 1339 1335 1332 1336 1339 1342 1346 1349 1353 1358 1362 1367
1458 1456 1454 1449 1446 1443 1439 1433 1426 1419 1411 1403 1397 1391 1384 1377 1370 1363 1356 1350 1347 1348 1343 1342 1342 1344 1347 1347 1351 1354 1358 1362
Wind_Speed
12 9 4 5 3 4 4 5 8 13 15 21 27 27 23 26 28 30 30 31 30 34 33 33 30 40 39 28 28 27 28 28
13 9 6 6 3 4 5 6 7 9 9 11 11 14 20 24 27 32 31 32 34 34 37 38 38 35 38 41 29 32 34 28
11 9 6 8 6 7 7 7 8 9 8 13 16 20 26 24 26 28 37 37 36 40 38 38 41 41 37 35 37 37 35 31
13 6 7 5 7 10 10 10 10 12 13 14 15 18 22 28 30 29 26 32 37 40 41 43 42 44 43 39 39 45 42 34
8 7 5 6 7 10 14 16 16 14 18 19 18 21 24 24 26 27 24 28 39 42 44 43 45 48 45 41 40 40 40 35
8 7 6 7 10 12 15 17 18 19 21 21 24 27 29 31 33 35 39 33 24 43 46 44 45 45 46 45 42 42 42 42
6 5 8 11 13 15 16 17 19 22 23 24 26 28 31 34 36 39 39 44 36 31 47 47 47 43 42 43 42 43 43 44
7 11 13 15 18 20 20 21 24 24 25 27 28 30 32 35 37 39 41 44 46 41 37 46 51 47 45 44 45 44 42 41
10 12 14 17 20 22 24 28 30 29 29 30 31 32 34 37 38 39 43 45 48 45 32 42 46 42 39 45 44 47 45 42
12 14 15 18 20 22 24 31 33 31 32 32 33 33 34 37 39 39 42 46 49 48 39 37 46 43 40 41 50 50 45 44
16 17 17 18 19 21 24 27 29 31 32 31 32 32 34 36 36 38 42 45 44 48 46 36 45 47 40 38 46 48 47 43
18 19 19 20 23 23 25 29 30 30 29 28 29 30 32 32 32 31 32 34 40 45 46 42 46 45 39 41 46 47 44 42
14 16 18 21 23 24 27 29 31 30 27 25 26 26 25 24 23 23 23 16 23 26 41 43 47 46 39 38 46 45 43 40
13 14 16 18 21 25 26 28 31 28 25 24 24 23 21 20 19 17 20 24 22 22 33 41 46 45 39 35 41 45 43 43
14 15 17 19 21 23 26 26 28 26 24 22 21 21 19 17 17 17 17 17 25 35 37 37 40 38 35 32 40 40 41 41
14 15 17 19 23 25 24 23 25 25 25 24 22 21 20 18 17 15 14 8 5 4 27 21 25 29 29 29 31 36 37 38
11 14 18 21 23 23 22 24 24 25 27 28 28 25 24 23 22 18 18 16 14 10 7 11 20 24 26 28 28 36 39 40
13 15 17 18 21 21 22 22 23 26 29 31 33 33 32 30 29 27 26 25 18 19 14 10 10 15 24 29 32 39 40 38
11 13 15 17 19 21 22 24 26 29 32 34 35 37 39 38 37 38 38 36 31 28 24 19 14 8 10 25 33 38 38 33
Wind_Direction
146 132 105 66 13 358 317 287 273 263 257 241 235 232 243 245 235 238 236 245 234 231 224 241 236 216 212 208 234 231 223 232
129 105 81 66 10 327 334 345 333 314 288 263 257 261 247 251 248 241 241 237 239 234 230 228 241 238 230 212 224 232 226 226
125 99 74 38 351 324 349 343 321 301 298 268 259 251 236 238 231 237 246 237 241 237 231 225 236 242 239 228 211 226 222 222
104 85 50 10 332 331 336 329 320 316 311 295 284 267 258 252 254 247 247 238 238 239 237 234 230 240 240 232 221 224 230 220
80 60 27 347 342 331 320 318 320 319 300 296 290 282 278 265 249 247 244 253 249 244 242 237 237 239 244 237 229 229 227 220
56 35 3 356 350 342 325 322 321 311 306 302 295 286 278 270 262 250 239 239 248 243 241 237 236 241 242 240 232 230 226 228
49 24 4 356 344 339 334 325 316 311 306 303 298 293 289 283 277 268 254 245 243 246 238 240 244 242 235 237 240 235 228 228
44 20 8 357 349 344 335 324 317 316 313 306 300 295 291 287 283 278 272 257 247 242 247 243 240 239 237 236 239 241 235 223
43 21 8 356 348 339 331 320 318 318 314 309 303 299 295 288 284 278 273 265 252 247 260 245 239 237 237 236 237 238 236 230
28 17 8 354 345 339 327 318 318 318 315 311 306 301 296 291 287 281 274 269 257 250 240 251 249 249 244 237 235 237 232 229
18 13 4 355 345 336 330 324 324 323 318 315 311 308 302 296 288 283 277 270 261 245 244 241 242 246 241 238 232 232 231 231
7 3 358 351 343 342 333 337 333 329 324 321 319 317 309 295 286 279 274 270 262 245 241 233 239 239 237 234 229 227 226 232
4 1 354 351 346 341 340 341 341 338 331 328 328 325 312 303 291 282 268 287 271 255 240 228 234 233 230 230 227 225 225 228
6 3 358 350 347 346 348 347 347 345 341 339 340 334 329 335 320 306 278 255 246 247 243 236 229 226 227 231 225 222 227 225
9 1 355 352 352 355 356 353 354 355 357 354 353 353 356 354 339 342 319 247 252 256 246 234 227 225 223 227 222 224 225 225
11 3 358 359 2 6 2 3 6 10 14 15 14 11 15 15 13 360 355 18 237 191 203 209 214 216 217 228 223 219 221 203
12 9 9 10 13 11 12 16 19 25 29 32 35 35 35 34 34 29 38 21 39 84 165 192 210 224 233 229 227 214 205 207
19 19 18 22 24 24 25 27 35 38 41 44 47 47 47 49 51 51 50 51 33 60 86 129 163 197 211 210 197 205 203 194
31 30 32 38 39 40 42 44 45 47 49 52 53 54 55 56 57 59 61 60 58 55 59 76 89 87 168 179 177 189 182 182